When you browse on this site, cookies collect data to enhance your experience and personalize the content and advertising you see.
Visit our Privacy Policy to learn more. By continuing to use the site, you agree to this use of cookies and data.
  • In Romania
  • List of Countries
  • For 7 days
  • Water Temperature
  • Weather Map
  • Weather Widgets
  • user-avatar
    Login

    Hourly Weather Szombathely

    Today, 22 October, Tuesday

    Time Temperature Precipitation Wind Pressure Humidity
    00:00 +15°C° 0 mm 1 mps 746 mmHg 90%
    01:00 +15°C° 0 mm 1 mps 747 mmHg 90%
    02:00 +15°C° 0 mm 1 mps 746 mmHg 90%
    03:00 +15°C° 0 mm 1 mps 746 mmHg 91%
    04:00 +14°C° 0 mm 1 mps 746 mmHg 91%
    05:00 +14°C° 0 mm 1 mps 747 mmHg 92%
    06:00 +14°C° 0 mm 1 mps 747 mmHg 92%
    07:00 +13°C° 0 mm 0 mps 747 mmHg 88%
    08:00 +16°C° 0 mm 1 mps 748 mmHg 81%
    09:00 +19°C° 0 mm 1 mps 748 mmHg 74%
    10:00 +19°C° 0 mm 2 mps 748 mmHg 67%
    11:00 +21°C° 0 mm 1 mps 748 mmHg 64%
    12:00 +22°C° 0 mm 1 mps 748 mmHg 61%
    13:00 +24°C° 0 mm 1 mps 747 mmHg 58%
    14:00 +23°C° 0 mm 1 mps 747 mmHg 60%
    15:00 +23°C° 0 mm 1 mps 747 mmHg 62%
    16:00 +20°C° 0 mm 0 mps 746 mmHg 65%
    17:00 +19°C° 0 mm 0 mps 747 mmHg 70%
    18:00 +17°C° 0 mm 0 mps 747 mmHg 75%
    19:00 +16°C° 0 mm 0 mps 747 mmHg 81%
    20:00 +16°C° 0 mm 0 mps 747 mmHg 82%
    21:00 +15°C° 0 mm 0 mps 747 mmHg 84%
    22:00 +15°C° 0 mm 0 mps 747 mmHg 85%
    23:00 +15°C° 0 mm 0 mps 747 mmHg 86%

    Tomorrow, 23 October, Wednesday

    Time Temperature Precipitation Wind Pressure Humidity
    00:00 +14°C° 0 mm 0 mps 747 mmHg 86%
    01:00 +14°C° 0 mm 0 mps 747 mmHg 87%
    02:00 +14°C° 0 mm 0 mps 746 mmHg 87%
    03:00 +13°C° 0 mm 0 mps 746 mmHg 88%
    04:00 +13°C° 0 mm 0 mps 746 mmHg 88%
    05:00 +14°C° 0 mm 1 mps 746 mmHg 88%
    06:00 +14°C° 0 mm 1 mps 746 mmHg 88%
    07:00 +14°C° 0 mm 1 mps 746 mmHg 88%
    08:00 +16°C° 0 mm 1 mps 746 mmHg 79%
    09:00 +18°C° 0 mm 2 mps 746 mmHg 70%
    10:00 +20°C° 0 mm 3 mps 746 mmHg 60%
    11:00 +21°C° 0 mm 3 mps 745 mmHg 56%
    12:00 +22°C° 0 mm 3 mps 745 mmHg 51%
    13:00 +25°C° 0 mm 4 mps 745 mmHg 47%
    14:00 +24°C° 0 mm 3 mps 744 mmHg 50%
    15:00 +22°C° 0 mm 3 mps 744 mmHg 53%
    16:00 +22°C° 0 mm 3 mps 743 mmHg 56%
    17:00 +20°C° 0 mm 3 mps 743 mmHg 61%
    18:00 +18°C° 0 mm 3 mps 743 mmHg 67%
    19:00 +17°C° 0 mm 3 mps 743 mmHg 72%
    20:00 +16°C° 0 mm 3 mps 743 mmHg 76%
    21:00 +16°C° 0 mm 3 mps 743 mmHg 79%
    22:00 +14°C° 0 mm 3 mps 743 mmHg 82%
    23:00 +14°C° 0 mm 3 mps 743 mmHg 84%

    Day after tomorrow, 24 October, Thursday

    Time Temperature Precipitation Wind Pressure Humidity
    00:00 +13°C° 0 mm 3 mps 743 mmHg 86%
    01:00 +13°C° 0 mm 3 mps 742 mmHg 88%
    02:00 +13°C° 0 mm 3 mps 742 mmHg 89%
    03:00 +12°C° 0 mm 3 mps 742 mmHg 90%
    04:00 +12°C° 0 mm 3 mps 741 mmHg 91%
    05:00 +12°C° 0 mm 3 mps 741 mmHg 89%
    06:00 +12°C° 0 mm 3 mps 741 mmHg 88%
    07:00 +12°C° 0 mm 4 mps 741 mmHg 87%
    08:00 +14°C° 0 mm 4 mps 741 mmHg 75%
    09:00 +17°C° 0 mm 5 mps 741 mmHg 63%
    10:00 +20°C° 0 mm 6 mps 741 mmHg 50%
    11:00 +22°C° 0 mm 6 mps 741 mmHg 47%
    12:00 +23°C° 0 mm 6 mps 740 mmHg 43%
    13:00 +24°C° 0 mm 6 mps 740 mmHg 39%
    14:00 +23°C° 0 mm 6 mps 740 mmHg 43%
    15:00 +23°C° 0 mm 5 mps 740 mmHg 46%
    16:00 +22°C° 0 mm 5 mps 740 mmHg 49%
    17:00 +21°C° 0 mm 4 mps 740 mmHg 54%
    18:00 +19°C° 0 mm 4 mps 740 mmHg 59%
    19:00 +18°C° 0 mm 4 mps 740 mmHg 63%
    20:00 +17°C° 0 mm 3 mps 741 mmHg 67%
    21:00 +16°C° 0 mm 2 mps 741 mmHg 70%
    22:00 +15°C° 0 mm 2 mps 742 mmHg 73%
    23:00 +15°C° 0 mm 1 mps 742 mmHg 75%

    25 October, Friday

    Time Temperature Precipitation Wind Pressure Humidity
    00:00 +15°C° 0 mm 1 mps 742 mmHg 78%
    01:00 +14°C° 0 mm 1 mps 742 mmHg 80%
    02:00 +14°C° 0 mm 1 mps 743 mmHg 81%
    03:00 +14°C° 0 mm 1 mps 743 mmHg 82%
    04:00 +13°C° 0 mm 1 mps 744 mmHg 83%
    05:00 +13°C° 0 mm 1 mps 744 mmHg 84%
    06:00 +13°C° 0 mm 2 mps 745 mmHg 84%
    07:00 +13°C° 0 mm 2 mps 745 mmHg 84%
    08:00 +16°C° 0 mm 3 mps 746 mmHg 73%
    09:00 +18°C° 0 mm 4 mps 746 mmHg 62%
    10:00 +20°C° 0 mm 5 mps 747 mmHg 51%
    11:00 +21°C° 0 mm 4 mps 747 mmHg 48%
    12:00 +22°C° 0 mm 4 mps 747 mmHg 46%
    13:00 +23°C° 0 mm 4 mps 747 mmHg 43%
    14:00 +22°C° 0 mm 4 mps 747 mmHg 48%
    15:00 +21°C° 0 mm 4 mps 747 mmHg 52%
    16:00 +20°C° 0 mm 3 mps 746 mmHg 57%
    17:00 +18°C° 0 mm 3 mps 747 mmHg 62%
    18:00 +17°C° 0 mm 2 mps 747 mmHg 68%
    19:00 +15°C° 0 mm 2 mps 747 mmHg 73%
    20:00 +15°C° 0 mm 2 mps 747 mmHg 75%
    21:00 +14°C° 0 mm 1 mps 747 mmHg 77%
    22:00 +14°C° 0 mm 1 mps 747 mmHg 79%
    23:00 +14°C° 0 mm 1 mps 747 mmHg 81%

    26 October, Saturday

    Time Temperature Precipitation Wind Pressure Humidity
    00:00 +13°C° 0 mm 1 mps 747 mmHg 82%
    01:00 +13°C° 0 mm 1 mps 746 mmHg 84%
    02:00 +13°C° 0 mm 2 mps 746 mmHg 85%
    03:00 +12°C° 0 mm 2 mps 746 mmHg 87%
    04:00 +12°C° 0 mm 2 mps 745 mmHg 89%
    05:00 +12°C° 0 mm 2 mps 746 mmHg 89%
    06:00 +12°C° 0 mm 2 mps 746 mmHg 89%
    07:00 +12°C° 0 mm 2 mps 746 mmHg 89%
    08:00 +14°C° 0 mm 2 mps 746 mmHg 79%
    09:00 +16°C° 0 mm 2 mps 746 mmHg 70%
    10:00 +18°C° 0 mm 2 mps 746 mmHg 60%
    11:00 +20°C° 0 mm 2 mps 746 mmHg 56%
    12:00 +21°C° 0 mm 2 mps 746 mmHg 52%
    13:00 +23°C° 0 mm 2 mps 745 mmHg 47%
    14:00 +21°C° 0 mm 2 mps 745 mmHg 51%
    15:00 +20°C° 0 mm 2 mps 744 mmHg 54%
    16:00 +21°C° 0 mm 1 mps 744 mmHg 57%
    17:00 +19°C° 0 mm 1 mps 744 mmHg 61%
    18:00 +18°C° 0 mm 1 mps 744 mmHg 66%
    19:00 +16°C° 0 mm 1 mps 745 mmHg 71%
    20:00 +15°C° 0 mm 1 mps 745 mmHg 73%
    21:00 +15°C° 0 mm 1 mps 745 mmHg 75%
    22:00 +14°C° 0 mm 1 mps 745 mmHg 77%
    23:00 +14°C° 0 mm 1 mps 745 mmHg 78%

    27 October, Sunday

    Time Temperature Precipitation Wind Pressure Humidity
    00:00 +14°C° 0 mm 1 mps 745 mmHg 79%
    01:00 +14°C° 0 mm 1 mps 745 mmHg 80%
    02:00 +13°C° 0 mm 1 mps 745 mmHg 82%
    03:00 +13°C° 0 mm 1 mps 745 mmHg 83%
    04:00 +13°C° 0 mm 1 mps 745 mmHg 84%
    05:00 +12°C° 0 mm 0 mps 745 mmHg 84%
    06:00 +12°C° 0 mm 0 mps 745 mmHg 84%
    07:00 +11°C° 0 mm 0 mps 746 mmHg 83%
    08:00 +13°C° 0 mm 0 mps 746 mmHg 76%
    09:00 +16°C° 0 mm 1 mps 747 mmHg 68%
    10:00 +19°C° 0 mm 1 mps 747 mmHg 60%
    11:00 +18°C° 0 mm 2 mps 747 mmHg 58%
    12:00 +19°C° 0 mm 2 mps 747 mmHg 55%
    13:00 +19°C° 0 mm 3 mps 747 mmHg 53%
    14:00 +19°C° 0 mm 3 mps 747 mmHg 56%
    15:00 +18°C° 0 mm 3 mps 747 mmHg 58%
    16:00 +17°C° 0 mm 3 mps 747 mmHg 60%
    17:00 +16°C° 0 mm 3 mps 747 mmHg 61%
    18:00 +14°C° 0 mm 3 mps 747 mmHg 62%
    19:00 +13°C° 0 mm 3 mps 748 mmHg 63%
    20:00 +13°C° 0 mm 2 mps 748 mmHg 61%
    21:00 +13°C° 0 mm 2 mps 748 mmHg 59%
    22:00 +12°C° 0 mm 1 mps 748 mmHg 58%
    23:00 +12°C° 0 mm 1 mps 748 mmHg 56%

    28 October, Monday

    Time Temperature Precipitation Wind Pressure Humidity
    00:00 +12°C° 0 mm 1 mps 747 mmHg 55%
    01:00 +12°C° 0 mm 1 mps 747 mmHg 53%
    02:00 +12°C° 0 mm 1 mps 747 mmHg 52%
    03:00 +12°C° 0 mm 1 mps 747 mmHg 51%
    04:00 +12°C° 0 mm 1 mps 746 mmHg 51%
    05:00 +11°C° 0.1 mm 1 mps 746 mmHg 53%
    06:00 +11°C° 0.1 mm 1 mps 746 mmHg 56%
    07:00 +11°C° 0.1 mm 1 mps 746 mmHg 59%
    08:00 +11°C° 0 mm 1 mps 746 mmHg 60%
    09:00 +11°C° 0 mm 1 mps 746 mmHg 61%
    10:00 +12°C° 0 mm 1 mps 746 mmHg 62%
    11:00 +13°C° 0 mm 1 mps 746 mmHg 61%
    12:00 +14°C° 0 mm 2 mps 745 mmHg 60%
    13:00 +15°C° 0 mm 2 mps 745 mmHg 59%
    14:00 +15°C° 0 mm 1 mps 745 mmHg 60%
    15:00 +15°C° 0 mm 1 mps 745 mmHg 62%
    16:00 +15°C° 0 mm 1 mps 744 mmHg 64%
    17:00 +14°C° 0 mm 1 mps 744 mmHg 67%
    18:00 +13°C° 0 mm 1 mps 744 mmHg 71%
    19:00 +12°C° 0 mm 1 mps 744 mmHg 74%
    20:00 +11°C° 0 mm 1 mps 744 mmHg 75%
    21:00 +11°C° 0 mm 1 mps 745 mmHg 76%
    22:00 +11°C° 0 mm 1 mps 745 mmHg 77%
    23:00 +11°C° 0 mm 1 mps 745 mmHg 78%
    Show more